Location: Cold Norton
(51.6667°N, 0.6667°E)
Time: 17:03:22
(UTC+00:00)

CZ-4C R/B - Pass Details

Date: 18 November 2025
Orbit: 487 x 1493 km, 63.4° (Epoch: 12 December)

Event Time Altitude Azimuth Distance (km) Brightness Sun altitude
Rises 20:32:31 0° 308° (NW) 3,377 6.1 -41.0°
Reaches altitude 10° 20:34:55 10° 316° (NW) 2,584 5.3 -41.3°
Enters shadow 20:37:04 22° 330° (NNW) 1,978 4.4 -41.6°
